,,,PA_Meas_PMT16A,,PR_Meas_QMR101_102,,RH_Meas_QMH101,,SR_Meas_QMS101,,TA_Meas_QMH101,,GenWind,,GenWind,
date,time,status,PA,status,PR,status,RH,status,SR,status,TA,status,DirAvg,status,SpdAvg,
2012-09-10, 00:00:05,VALID,1011.82,VALID,0,VALID,104,VALID,0,VALID,24.1227,VALID,105,VALID,0.564453,
2012-09-10, 00:01:05,VALID,1011.81,VALID,0,VALID,104,VALID,0,VALID,24.1227,VALID,105,VALID,0,
2012-09-10, 00:02:05,VALID,1011.78,VALID,0,VALID,104,VALID,0,VALID,24.1014,VALID,105,VALID,0.065625,
2012-09-10, 00:03:05,VALID,1011.76,VALID,0,VALID,104,VALID,0,VALID,24.1422,VALID,105,VALID,0,
2012-09-10, 00:04:05,VALID,1011.74,VALID,0,VALID,104,VALID,0,VALID,24.1422,VALID,105,VALID,0,
2012-09-10, 00:05:05,VALID,1011.72,VALID,0,VALID,104,VALID,0,VALID,24.1209,VALID,105,VALID,0,
2012-09-10, 00:06:05,VALID,1011.69,VALID,0,VALID,104,VALID,0,VALID,24.1227,VALID,105,VALID,0,
2012-09-10, 00:07:05,VALID,1011.67,VALID,0,VALID,104,VALID,0.112112,VALID,24.1227,VALID,105,VALID,0,
2012-09-10, 00:08:05,VALID,1011.65,VALID,0,VALID,104,VALID,0,VALID,24.0819,VALID,105,VALID,0,
2012-09-10, 00:09:05,VALID,1011.6,VALID,0,VALID,104,VALID,0,VALID,24.1032,VALID,105,VALID,0,
2012-09-10, 00:10:05,VALID,1011.57,VALID,0,VALID,104,VALID,0,VALID,24.0837,VALID,105,VALID,0,
2012-09-10, 00:11:05,VALID,1011.57,VALID,0,VALID,104,VALID,0.112112,VALID,24.0837,VALID,105,VALID,0,
2012-09-10, 00:12:05,VALID,1011.56,VALID,0,VALID,104,VALID,0,VALID,24.0429,VALID,105,VALID,0,
2012-09-10, 00:13:05,VALID,1011.55,VALID,0,VALID,104,VALID,0,VALID,24.0624,VALID,105,VALID,0,
2012-09-10, 00:14:05,VALID,1011.53,VALID,0,VALID,104,VALID,0,VALID,24.0837,VALID,105,VALID,0,
2012-09-10, 00:15:05,VALID,1011.5,VALID,0,VALID,104,VALID,0,VALID,24.0837,VALID,105,VALID,0,
2012-09-10, 00:16:04,VALID,1011.5,VALID,0,VALID,104,VALID,0,VALID,24.0837,VALID,105,VALID,0,
2012-09-10, 00:17:04,VALID,1011.49,VALID,0,VALID,104,VALID,0,VALID,24.0624,VALID,105,VALID,0,
2012-09-10, 00:18:04,VALID,1011.48,VALID,0,VALID,104,VALID,0,VALID,24.0429,VALID,105,VALID,0,
2012-09-10, 00:19:04,VALID,1011.46,VALID,0,VALID,104,VALID,0,VALID,24.0643,VALID,105,VALID,0,
2012-09-10, 00:20:04,VALID,1011.46,VALID,0,VALID,104,VALID,0,VALID,24.0429,VALID,105,VALID,0,
2012-09-10, 00:21:04,VALID,1011.44,VALID,0,VALID,104,VALID,0,VALID,24.0235,VALID,105,VALID,0,
2012-09-10, 00:22:04,VALID,1011.47,VALID,0,VALID,104,VALID,0,VALID,24.0235,VALID,105,VALID,0,
2012-09-10, 00:23:04,VALID,1011.45,VALID,0,VALID,104,VALID,0,VALID,24.0448,VALID,105,VALID,0,
2012-09-10, 00:24:04,VALID,1011.47,VALID,0,VALID,104,VALID,0,VALID,24.0448,VALID,105,VALID,0,
2012-09-10, 00:25:04,VALID,1011.47,VALID,0,VALID,104,VALID,0,VALID,24.0448,VALID,105,VALID,0,
2012-09-10, 00:26:04,VALID,1011.48,VALID,0,VALID,104,VALID,0,VALID,24.0643,VALID,105,VALID,0,
2012-09-10, 00:27:04,VALID,1011.45,VALID,0,VALID,104,VALID,0,VALID,24.0429,VALID,105,VALID,0,
2012-09-10, 00:28:04,VALID,1011.45,VALID,0,VALID,104,VALID,0,VALID,24.0643,VALID,105,VALID,0,
2012-09-10, 00:29:04,VALID,1011.43,VALID,0,VALID,104,VALID,0,VALID,24.0448,VALID,105,VALID,0,
2012-09-10, 00:30:04,VALID,1011.43,VALID,0,VALID,104,VALID,0,VALID,24.0643,VALID,105,VALID,0,
2012-09-10, 00:31:04,VALID,1011.4,VALID,0,VALID,104,VALID,0,VALID,24.0643,VALID,105,VALID,0,
2012-09-10, 00:32:04,VALID,1011.37,VALID,0,VALID,104,VALID,0,VALID,24.0643,VALID,105,VALID,0,
2012-09-10, 00:33:04,VALID,1011.36,VALID,0,VALID,104,VALID,0,VALID,24.0643,VALID,105,VALID,0,
2012-09-10, 00:34:04,VALID,1011.38,VALID,0,VALID,104,VALID,0,VALID,24.0429,VALID,105,VALID,0,
2012-09-10, 00:35:04,VALID,1011.34,VALID,0,VALID,104,VALID,0,VALID,24.0429,VALID,105,VALID,0,
2012-09-10, 00:36:04,VALID,1011.34,VALID,0,VALID,104,VALID,0,VALID,24.0643,VALID,105,VALID,0,
2012-09-10, 00:37:04,VALID,1011.33,VALID,0,VALID,104,VALID,0.112112,VALID,24.0643,VALID,105,VALID,0,
2012-09-10, 00:38:04,VALID,1011.34,VALID,0,VALID,104,VALID,0.112112,VALID,24.004,VALID,105,VALID,0,
2012-09-10, 00:39:04,VALID,1011.31,VALID,0,VALID,104,VALID,0.112112,VALID,24.0253,VALID,105,VALID,0,
2012-09-10, 00:40:04,VALID,1011.3,VALID,0,VALID,104,VALID,0.112112,VALID,24.0448,VALID,105,VALID,0,
2012-09-10, 00:41:04,VALID,1011.28,VALID,0,VALID,104,VALID,0,VALID,24.0448,VALID,105,VALID,0,
2012-09-10, 00:42:04,VALID,1011.28,VALID,0,VALID,104,VALID,0.112112,VALID,24.0253,VALID,105,VALID,0,
2012-09-10, 00:43:04,VALID,1011.23,VALID,0,VALID,104,VALID,0,VALID,24.004,VALID,105,VALID,0,
2012-09-10, 00:44:04,VALID,1011.23,VALID,0,VALID,104,VALID,0.112112,VALID,24.0448,VALID,105,VALID,0,
2012-09-10, 00:45:04,VALID,1011.21,VALID,0,VALID,104,VALID,0,VALID,24.0253,VALID,105,VALID,0,
2012-09-10, 00:46:04,VALID,1011.22,VALID,0,VALID,104,VALID,0,VALID,24.0643,VALID,105,VALID,0,
2012-09-10, 00:47:04,VALID,1011.18,VALID,0,VALID,104,VALID,0,VALID,24.0429,VALID,105,VALID,0,
2012-09-10, 00:48:04,VALID,1011.15,VALID,0,VALID,104,VALID,0,VALID,24.0643,VALID,105,VALID,0,
2012-09-10, 00:49:04,VALID,1011.12,VALID,0,VALID,104,VALID,0,VALID,24.0643,VALID,105,VALID,0,
2012-09-10, 00:50:04,VALID,1011.12,VALID,0,VALID,104,VALID,0,VALID,24.0643,VALID,105,VALID,0.575391,
2012-09-10, 00:51:04,VALID,1011.11,VALID,0,VALID,104,VALID,0,VALID,24.0448,VALID,105,VALID,0.562109,
2012-09-10, 00:52:04,VALID,1011.08,VALID,0,VALID,104,VALID,0,VALID,24.0643,VALID,137,VALID,0.732813,
2012-09-10, 00:53:04,VALID,1011.06,VALID,0,VALID,104,VALID,0,VALID,24.0643,VALID,140,VALID,0.751172,
2012-09-10, 00:54:04,VALID,1011.04,VALID,0,VALID,104,VALID,0,VALID,24.0448,VALID,140,VALID,0.75,
2012-09-10, 00:55:04,VALID,1011.04,VALID,0,VALID,104,VALID,0,VALID,24.0624,VALID,141,VALID,0.68125,
2012-09-10, 00:56:04,VALID,1011.03,VALID,0,VALID,104,VALID,0,VALID,24.0837,VALID,141,VALID,0.725,
2012-09-10, 00:57:04,VALID,1011.01,VALID,0,VALID,104,VALID,0,VALID,24.0819,VALID,141,VALID,0.697266,
2012-09-10, 00:58:04,VALID,1011,VALID,0,VALID,104,VALID,0,VALID,24.1032,VALID,141,VALID,0.39375,
2012-09-10, 00:59:04,VALID,1011,VALID,0,VALID,104,VALID,0.112112,VALID,24.1014,VALID,141,VALID,0.455859,
2012-09-10, 01:00:04,VALID,1010.97,VALID,0,VALID,104,VALID,0,VALID,24.1227,VALID,141,VALID,0.367578,
2012-09-10, 01:01:04,VALID,1010.99,VALID,0,VALID,104,VALID,0,VALID,24.144,VALID,141,VALID,0.279297,
2012-09-10, 01:02:04,VALID,1010.96,VALID,0,VALID,104,VALID,0,VALID,24.1422,VALID,141,VALID,0,
2012-09-10, 01:03:04,VALID,1010.96,VALID,0,VALID,104,VALID,0,VALID,24.1422,VALID,141,VALID,0,
2012-09-10, 01:04:04,VALID,1010.95,VALID,0,VALID,104,VALID,0,VALID,24.1422,VALID,140,VALID,0.517969,
2012-09-10, 01:05:04,VALID,1010.93,VALID,0,VALID,104,VALID,0,VALID,24.1422,VALID,139,VALID,0.243359,
2012-09-10, 01:06:04,VALID,1010.94,VALID,0,VALID,104,VALID,0,VALID,24.1422,VALID,139,VALID,0.778125,
2012-09-10, 01:07:04,VALID,1010.91,VALID,0,VALID,104,VALID,0,VALID,24.1617,VALID,137,VALID,0.543359,
2012-09-10, 01:08:04,VALID,1010.91,VALID,0,VALID,104,VALID,0,VALID,24.1812,VALID,136,VALID,0.698438,
2012-09-10, 01:09:04,VALID,1010.87,VALID,0,VALID,104,VALID,0,VALID,24.1617,VALID,136,VALID,0.267969,
2012-09-10, 01:10:04,VALID,1010.87,VALID,0,VALID,104,VALID,0,VALID,24.1617,VALID,136,VALID,0.221875,
2012-09-10, 01:11:04,VALID,1010.85,VALID,0,VALID,104,VALID,0,VALID,24.1617,VALID,136,VALID,0.108594,
2012-09-10, 01:12:04,VALID,1010.85,VALID,0,VALID,104,VALID,0,VALID,24.1599,VALID,137,VALID,0,
2012-09-10, 01:13:04,VALID,1010.82,VALID,0,VALID,104,VALID,0,VALID,24.1812,VALID,138,VALID,0,
2012-09-10, 01:14:04,VALID,1010.82,VALID,0,VALID,104,VALID,0,VALID,24.1812,VALID,138,VALID,0,
2012-09-10, 01:15:04,VALID,1010.78,VALID,0,VALID,104,VALID,0,VALID,24.1617,VALID,138,VALID,0,
2012-09-10, 01:16:04,VALID,1010.79,VALID,0,VALID,104,VALID,0,VALID,24.1812,VALID,138,VALID,0,
2012-09-10, 01:17:04,VALID,1010.76,VALID,0,VALID,104,VALID,0,VALID,24.1617,VALID,138,VALID,0,
2012-09-10, 01:18:04,VALID,1010.73,VALID,0,VALID,104,VALID,0,VALID,24.1812,VALID,138,VALID,0,
2012-09-10, 01:19:04,VALID,1010.71,VALID,0,VALID,104,VALID,0,VALID,24.1812,VALID,138,VALID,0,
2012-09-10, 01:20:04,VALID,1010.68,VALID,0,VALID,104,VALID,0,VALID,24.1812,VALID,138,VALID,0,
2012-09-10, 01:21:04,VALID,1010.68,VALID,0,VALID,104,VALID,0,VALID,24.1617,VALID,138,VALID,0,
2012-09-10, 01:22:04,VALID,1010.65,VALID,0,VALID,104,VALID,0,VALID,24.1617,VALID,138,VALID,0,
2012-09-10, 01:23:04,VALID,1010.64,VALID,0,VALID,104,VALID,0,VALID,24.1617,VALID,138,VALID,0,
2012-09-10, 01:24:04,VALID,1010.62,VALID,0,VALID,104,VALID,0,VALID,24.1422,VALID,138,VALID,0,
2012-09-10, 01:25:04,VALID,1010.62,VALID,0,VALID,104,VALID,0,VALID,24.1422,VALID,138,VALID,0,
2012-09-10, 01:26:04,VALID,1010.64,VALID,0,VALID,104,VALID,0,VALID,24.1422,VALID,138,VALID,0,
2012-09-10, 01:27:04,VALID,1010.61,VALID,0,VALID,104,VALID,0,VALID,24.1422,VALID,138,VALID,0,
2012-09-10, 01:28:04,VALID,1010.61,VALID,0,VALID,104,VALID,0.112112,VALID,24.1422,VALID,138,VALID,0,
2012-09-10, 01:29:04,VALID,1010.58,VALID,0,VALID,104,VALID,0,VALID,24.1227,VALID,138,VALID,0,
2012-09-10, 01:30:04,VALID,1010.57,VALID,0,VALID,104,VALID,0,VALID,24.1227,VALID,138,VALID,0,
2012-09-10, 01:31:04,VALID,1010.54,VALID,0,VALID,104,VALID,0,VALID,24.1227,VALID,138,VALID,0,
2012-09-10, 01:32:04,VALID,1010.51,VALID,0,VALID,104,VALID,0,VALID,24.1227,VALID,138,VALID,0,
2012-09-10, 01:33:04,VALID,1010.5,VALID,0,VALID,104,VALID,0,VALID,24.1032,VALID,138,VALID,0,
2012-09-10, 01:34:04,VALID,1010.49,VALID,0,VALID,104,VALID,0.112112,VALID,24.0837,VALID,138,VALID,0,
2012-09-10, 01:35:04,VALID,1010.5,VALID,0,VALID,104,VALID,0,VALID,24.0643,VALID,138,VALID,0,
2012-09-10, 01:36:04,VALID,1010.49,VALID,0,VALID,104,VALID,0,VALID,24.0448,VALID,138,VALID,0,
2012-09-10, 01:37:04,VALID,1010.48,VALID,0,VALID,104,VALID,0,VALID,24.0253,VALID,138,VALID,0,
2012-09-10, 01:38:04,VALID,1010.48,VALID,0,VALID,104,VALID,0,VALID,24.0253,VALID,138,VALID,0,
2012-09-10, 01:39:04,VALID,1010.47,VALID,0,VALID,104,VALID,0,VALID,24.0253,VALID,138,VALID,0,
2012-09-10, 01:40:04,VALID,1010.46,VALID,0,VALID,104,VALID,0,VALID,24.0058,VALID,138,VALID,0,
2012-09-10, 01:41:04,VALID,1010.45,VALID,0,VALID,104,VALID,0,VALID,24.0058,VALID,138,VALID,0,
2012-09-10, 01:42:04,VALID,1010.42,VALID,0,VALID,104,VALID,0,VALID,23.9863,VALID,138,VALID,0,
2012-09-10, 01:43:04,VALID,1010.45,VALID,0,VALID,104,VALID,0,VALID,23.9863,VALID,138,VALID,0,
2012-09-10, 01:44:04,VALID,1010.42,VALID,0,VALID,104,VALID,0,VALID,24.0058,VALID,138,VALID,0,
2012-09-10, 01:45:04,VALID,1010.42,VALID,0,VALID,104,VALID,0,VALID,24.0058,VALID,138,VALID,0,
2012-09-10, 01:46:04,VALID,1010.43,VALID,0,VALID,104,VALID,0,VALID,24.0253,VALID,138,VALID,0,
2012-09-10, 01:47:04,VALID,1010.41,VALID,0,VALID,104,VALID,0,VALID,24.0253,VALID,138,VALID,0,
2012-09-10, 01:48:04,VALID,1010.38,VALID,0,VALID,104,VALID,0,VALID,24.0448,VALID,138,VALID,0,
2012-09-10, 01:49:04,VALID,1010.37,VALID,0,VALID,104,VALID,0,VALID,24.0643,VALID,138,VALID,0,
2012-09-10, 01:50:04,VALID,1010.35,VALID,0,VALID,104,VALID,0,VALID,24.0448,VALID,138,VALID,0,
2012-09-10, 01:51:04,VALID,1010.35,VALID,0,VALID,104,VALID,0,VALID,24.0448,VALID,138,VALID,0,
2012-09-10, 01:52:04,VALID,1010.33,VALID,0,VALID,104,VALID,0,VALID,24.0448,VALID,112,VALID,0.328516,
2012-09-10, 01:53:04,VALID,1010.3,VALID,0,VALID,104,VALID,0,VALID,24.0448,VALID,104,VALID,0.607031,
2012-09-10, 01:54:04,VALID,1010.32,VALID,0,VALID,104,VALID,0,VALID,24.0643,VALID,104,VALID,0,
2012-09-10, 01:55:04,VALID,1010.27,VALID,0,VALID,104,VALID,0,VALID,24.0643,VALID,104,VALID,0.0964844,
2012-09-10, 01:56:04,VALID,1010.26,VALID,0,VALID,104,VALID,0,VALID,24.0837,VALID,104,VALID,0.276563,
2012-09-10, 01:57:04,VALID,1010.27,VALID,0,VALID,104,VALID,0,VALID,24.0624,VALID,104,VALID,0,
2012-09-10, 01:58:04,VALID,1010.26,VALID,0,VALID,104,VALID,0,VALID,24.0643,VALID,104,VALID,0,
2012-09-10, 01:59:04,VALID,1010.25,VALID,0,VALID,104,VALID,0.112112,VALID,24.0643,VALID,104,VALID,0,
2012-09-10, 02:00:04,VALID,1010.23,VALID,0,VALID,104,VALID,0,VALID,24.0643,VALID,105,VALID,0.626172,
2012-09-10, 02:01:04,VALID,1010.21,VALID,0,VALID,104,VALID,0,VALID,24.0643,VALID,110,VALID,0.680469,
2012-09-10, 02:02:04,VALID,1010.17,VALID,0,VALID,104,VALID,0,VALID,24.0643,VALID,110,VALID,0.540625,
2012-09-10, 02:03:04,VALID,1010.16,VALID,0,VALID,104,VALID,0,VALID,24.0837,VALID,110,VALID,0.206641,
2012-09-10, 02:04:04,VALID,1010.16,VALID,0,VALID,104,VALID,0,VALID,24.0643,VALID,110,VALID,0.409766,
2012-09-10, 02:05:04,VALID,1010.17,VALID,0,VALID,104,VALID,0,VALID,24.0643,VALID,110,VALID,0.463281,
2012-09-10, 02:06:04,VALID,1010.15,VALID,0,VALID,104,VALID,0,VALID,24.0448,VALID,103,VALID,0.585156,
2012-09-10, 02:07:04,VALID,1010.18,VALID,0,VALID,104,VALID,0,VALID,24.0448,VALID,103,VALID,0.38125,
2012-09-10, 02:08:04,VALID,1010.17,VALID,0,VALID,104,VALID,0,VALID,24.0253,VALID,103,VALID,0.676953,
2012-09-10, 02:09:04,VALID,1010.16,VALID,0,VALID,104,VALID,0,VALID,24.0058,VALID,103,VALID,0.480469,
2012-09-10, 02:10:04,VALID,1010.16,VALID,0,VALID,104,VALID,0,VALID,24.0058,VALID,100,VALID,0.81875,
2012-09-10, 02:11:04,VALID,1010.15,VALID,0,VALID,104,VALID,0,VALID,23.9668,VALID,99,VALID,0.533984,
2012-09-10, 02:12:04,VALID,1010.13,VALID,0,VALID,104,VALID,0,VALID,23.9668,VALID,99,VALID,0.840234,
2012-09-10, 02:13:04,VALID,1010.13,VALID,0,VALID,104,VALID,0,VALID,23.9473,VALID,99,VALID,0.433203,
2012-09-10, 02:14:04,VALID,1010.11,VALID,0,VALID,104,VALID,0,VALID,23.9278,VALID,118,VALID,0.645312,
2012-09-10, 02:15:04,VALID,1010.12,VALID,0,VALID,104,VALID,0,VALID,23.9473,VALID,118,VALID,0.305859,
2012-09-10, 02:16:04,VALID,1010.14,VALID,0,VALID,104,VALID,0,VALID,23.9278,VALID,118,VALID,0.667188,
2012-09-10, 02:17:04,VALID,1010.11,VALID,0,VALID,104,VALID,0,VALID,23.8871,VALID,132,VALID,1.06211,
2012-09-10, 02:18:04,VALID,1010.15,VALID,0,VALID,104,VALID,0,VALID,23.9084,VALID,117,VALID,0.883203,
2012-09-10, 02:19:04,VALID,1010.12,VALID,0,VALID,104,VALID,0,VALID,23.9084,VALID,128,VALID,0.979688,
2012-09-10, 02:20:04,VALID,1010.12,VALID,0,VALID,104,VALID,0,VALID,23.9084,VALID,129,VALID,0.669141,
2012-09-10, 02:21:04,VALID,1010.12,VALID,0,VALID,104,VALID,0,VALID,23.8694,VALID,129,VALID,0.350391,
2012-09-10, 02:22:04,VALID,1010.12,VALID,0,VALID,104,VALID,0,VALID,23.8889,VALID,123,VALID,0.389844,
2012-09-10, 02:23:04,VALID,1010.1,VALID,0,VALID,104,VALID,0,VALID,23.8694,VALID,98,VALID,0.848437,
2012-09-10, 02:24:04,VALID,1010.11,VALID,0,VALID,104,VALID,0,VALID,23.8694,VALID,91,VALID,0.960547,
2012-09-10, 02:25:04,VALID,1010.11,VALID,0,VALID,104,VALID,0,VALID,23.8499,VALID,98,VALID,0.33125,
2012-09-10, 02:26:04,VALID,1010.09,VALID,0,VALID,104,VALID,0,VALID,23.8499,VALID,94,VALID,0.850781,
2012-09-10, 02:27:04,VALID,1010.1,VALID,0,VALID,104,VALID,0,VALID,23.8499,VALID,94,VALID,0.866016,
2012-09-10, 02:28:04,VALID,1010.08,VALID,0,VALID,104,VALID,0,VALID,23.8499,VALID,94,VALID,0.605469,
2012-09-10, 02:29:04,VALID,1010.09,VALID,0,VALID,104,VALID,0,VALID,23.8304,VALID,95,VALID,0.534375,
2012-09-10, 02:30:04,VALID,1010.08,VALID,0,VALID,104,VALID,0,VALID,23.8499,VALID,95,VALID,0.133203,
2012-09-10, 02:31:04,VALID,1010.04,VALID,0,VALID,104,VALID,0,VALID,23.8304,VALID,111,VALID,0,
2012-09-10, 02:32:04,VALID,1010.04,VALID,0,VALID,104,VALID,0,VALID,23.8109,VALID,122,VALID,0.00078125,
2012-09-10, 02:33:04,VALID,1010.03,VALID,0,VALID,104,VALID,0,VALID,23.8109,VALID,127,VALID,0.685156,
2012-09-10, 02:34:04,VALID,1010.03,VALID,0,VALID,104,VALID,0,VALID,23.8109,VALID,122,VALID,0.540234,
2012-09-10, 02:35:04,VALID,1009.99,VALID,0,VALID,104,VALID,0,VALID,23.8109,VALID,122,VALID,0.685156,
2012-09-10, 02:36:04,VALID,1010.01,VALID,0,VALID,104,VALID,0,VALID,23.7914,VALID,122,VALID,0.404687,
2012-09-10, 02:37:04,VALID,1010.01,VALID,0,VALID,104,VALID,0,VALID,23.772,VALID,122,VALID,0.700391,
2012-09-10, 02:38:04,VALID,1010,VALID,0,VALID,104,VALID,0,VALID,23.772,VALID,122,VALID,0.600391,
2012-09-10, 02:39:04,VALID,1010.03,VALID,0,VALID,104,VALID,0,VALID,23.772,VALID,122,VALID,0.416016,
2012-09-10, 02:40:04,VALID,1010.04,VALID,0,VALID,104,VALID,0,VALID,23.772,VALID,122,VALID,0.210547,
2012-09-10, 02:41:04,VALID,1010.07,VALID,0,VALID,104,VALID,0,VALID,23.772,VALID,122,VALID,0.222656,
2012-09-10, 02:42:04,VALID,1010.08,VALID,0,VALID,104,VALID,0,VALID,23.7507,VALID,122,VALID,0.426562,
2012-09-10, 02:43:04,VALID,1010.08,VALID,0,VALID,104,VALID,0,VALID,23.7312,VALID,128,VALID,0.285937,
2012-09-10, 02:44:04,VALID,1010.11,VALID,0,VALID,104,VALID,0,VALID,23.7525,VALID,125,VALID,0.567578,
2012-09-10, 02:45:04,VALID,1010.1,VALID,0,VALID,104,VALID,0,VALID,23.7525,VALID,125,VALID,0,
2012-09-10, 02:46:04,VALID,1010.13,VALID,0,VALID,104,VALID,0.112112,VALID,23.7525,VALID,125,VALID,0,
2012-09-10, 02:47:04,VALID,1010.09,VALID,0,VALID,104,VALID,0.112112,VALID,23.7525,VALID,125,VALID,0,
2012-09-10, 02:48:04,VALID,1010.1,VALID,0,VALID,104,VALID,0,VALID,23.733,VALID,125,VALID,0,
2012-09-10, 02:49:04,VALID,1010.12,VALID,0,VALID,104,VALID,0,VALID,23.7525,VALID,125,VALID,0,
2012-09-10, 02:50:04,VALID,1010.13,VALID,0,VALID,104,VALID,0,VALID,23.7312,VALID,125,VALID,0,
2012-09-10, 02:51:04,VALID,1010.13,VALID,0,VALID,104,VALID,0.112112,VALID,23.7525,VALID,125,VALID,0,
2012-09-10, 02:52:04,VALID,1010.14,VALID,0,VALID,104,VALID,0,VALID,23.7312,VALID,125,VALID,0,
2012-09-10, 02:53:04,VALID,1010.14,VALID,0,VALID,104,VALID,0.112112,VALID,23.7312,VALID,125,VALID,0,
2012-09-10, 02:54:04,VALID,1010.19,VALID,0,VALID,104,VALID,0.112112,VALID,23.7525,VALID,125,VALID,0.120703,
2012-09-10, 02:55:04,VALID,1010.23,VALID,0,VALID,104,VALID,0,VALID,23.7525,VALID,125,VALID,0.537891,
2012-09-10, 02:56:04,VALID,1010.23,VALID,0,VALID,104,VALID,0,VALID,23.7525,VALID,125,VALID,0.442187,
2012-09-10, 02:57:04,VALID,1010.22,VALID,0,VALID,104,VALID,0,VALID,23.7525,VALID,124,VALID,0.48125,
2012-09-10, 02:58:04,VALID,1010.23,VALID,0,VALID,104,VALID,0,VALID,23.7525,VALID,124,VALID,0.617969,
2012-09-10, 02:59:04,VALID,1010.23,VALID,0,VALID,104,VALID,0,VALID,23.7525,VALID,124,VALID,0.185547,
2012-09-10, 03:00:04,VALID,1010.22,VALID,0,VALID,104,VALID,0.112112,VALID,23.7525,VALID,124,VALID,0.501953,
2012-09-10, 03:01:04,VALID,1010.23,VALID,0,VALID,104,VALID,0.112112,VALID,23.7525,VALID,124,VALID,0.360156,
2012-09-10, 03:02:04,VALID,1010.25,VALID,0,VALID,104,VALID,0,VALID,23.7525,VALID,124,VALID,0.0976563,
2012-09-10, 03:03:04,VALID,1010.27,VALID,0,VALID,104,VALID,0,VALID,23.7525,VALID,124,VALID,0,
2012-09-10, 03:04:04,VALID,1010.29,VALID,0,VALID,104,VALID,0,VALID,23.7312,VALID,119,VALID,0.0628906,
2012-09-10, 03:05:04,VALID,1010.29,VALID,0,VALID,104,VALID,0,VALID,23.7525,VALID,119,VALID,0.335547,
2012-09-10, 03:06:04,VALID,1010.32,VALID,0,VALID,104,VALID,0,VALID,23.7312,VALID,119,VALID,0.646094,
2012-09-10, 03:07:04,VALID,1010.32,VALID,0,VALID,104,VALID,0,VALID,23.7525,VALID,119,VALID,0.508203,
2012-09-10, 03:08:04,VALID,1010.31,VALID,0,VALID,104,VALID,0,VALID,23.7525,VALID,119,VALID,0.0375,
2012-09-10, 03:09:04,VALID,1010.32,VALID,0,VALID,104,VALID,0,VALID,23.7312,VALID,119,VALID,0,
2012-09-10, 03:10:04,VALID,1010.35,VALID,0,VALID,104,VALID,0,VALID,23.772,VALID,119,VALID,0,
2012-09-10, 03:11:04,VALID,1010.36,VALID,0,VALID,104,VALID,0.112112,VALID,23.772,VALID,119,VALID,0,
2012-09-10, 03:12:04,VALID,1010.36,VALID,0,VALID,104,VALID,0,VALID,23.7525,VALID,119,VALID,0,
2012-09-10, 03:13:04,VALID,1010.38,VALID,0,VALID,104,VALID,0,VALID,23.7525,VALID,119,VALID,0,
2012-09-10, 03:14:04,VALID,1010.38,VALID,0,VALID,104,VALID,0.112112,VALID,23.733,VALID,119,VALID,0,
2012-09-10, 03:15:04,VALID,1010.41,VALID,0,VALID,104,VALID,0,VALID,23.733,VALID,119,VALID,0,
2012-09-10, 03:16:04,VALID,1010.4,VALID,0,VALID,104,VALID,0,VALID,23.7135,VALID,119,VALID,0,
2012-09-10, 03:17:04,VALID,1010.44,VALID,0,VALID,104,VALID,0,VALID,23.7135,VALID,119,VALID,0,
2012-09-10, 03:18:04,VALID,1010.46,VALID,0,VALID,104,VALID,0,VALID,23.6922,VALID,119,VALID,0,
2012-09-10, 03:19:04,VALID,1010.46,VALID,0,VALID,104,VALID,0.112112,VALID,23.694,VALID,119,VALID,0,
2012-09-10, 03:20:04,VALID,1010.46,VALID,0,VALID,104,VALID,0,VALID,23.694,VALID,119,VALID,0,
2012-09-10, 03:21:04,VALID,1010.47,VALID,0,VALID,104,VALID,0,VALID,23.694,VALID,119,VALID,0,
2012-09-10, 03:22:04,VALID,1010.44,VALID,0,VALID,104,VALID,0.112112,VALID,23.694,VALID,119,VALID,0,
2012-09-10, 03:23:04,VALID,1010.47,VALID,0,VALID,104,VALID,0.112112,VALID,23.694,VALID,119,VALID,0,
2012-09-10, 03:24:04,VALID,1010.46,VALID,0,VALID,104,VALID,0.112112,VALID,23.7135,VALID,119,VALID,0,
2012-09-10, 03:25:04,VALID,1010.44,VALID,0,VALID,104,VALID,0,VALID,23.694,VALID,110,VALID,0,
2012-09-10, 03:26:04,VALID,1010.49,VALID,0,VALID,104,VALID,0,VALID,23.694,VALID,118,VALID,0.409375,
2012-09-10, 03:27:04,VALID,1010.47,VALID,0,VALID,104,VALID,0.112112,VALID,23.694,VALID,116,VALID,0.386328,
2012-09-10, 03:28:04,VALID,1010.45,VALID,0,VALID,104,VALID,0.112112,VALID,23.7153,VALID,104,VALID,0.528125,
2012-09-10, 03:29:04,VALID,1010.43,VALID,0,VALID,104,VALID,0,VALID,23.694,VALID,102,VALID,0.401563,
2012-09-10, 03:30:04,VALID,1010.41,VALID,0,VALID,104,VALID,0.112112,VALID,23.6745,VALID,102,VALID,0,
2012-09-10, 03:31:04,VALID,1010.41,VALID,0,VALID,104,VALID,0,VALID,23.6745,VALID,102,VALID,0,
2012-09-10, 03:32:04,VALID,1010.44,VALID,0,VALID,104,VALID,0,VALID,23.6745,VALID,120,VALID,0,
2012-09-10, 03:33:04,VALID,1010.44,VALID,0,VALID,104,VALID,0,VALID,23.6727,VALID,124,VALID,0.534375,
2012-09-10, 03:34:04,VALID,1010.46,VALID,0,VALID,104,VALID,0,VALID,23.6745,VALID,124,VALID,0.683203,
2012-09-10, 03:35:04,VALID,1010.44,VALID,0,VALID,104,VALID,0,VALID,23.6745,VALID,129,VALID,0.958984,
2012-09-10, 03:36:04,VALID,1010.48,VALID,0,VALID,104,VALID,0,VALID,23.6727,VALID,129,VALID,0.574609,
2012-09-10, 03:37:04,VALID,1010.47,VALID,0,VALID,104,VALID,0,VALID,23.6532,VALID,107,VALID,0.873828,
2012-09-10, 03:38:04,VALID,1010.47,VALID,0,VALID,104,VALID,0,VALID,23.655,VALID,110,VALID,1.09805,
2012-09-10, 03:39:04,VALID,1010.47,VALID,0,VALID,104,VALID,0,VALID,23.655,VALID,106,VALID,0.842188,
2012-09-10, 03:40:04,VALID,1010.47,VALID,0,VALID,104,VALID,0,VALID,23.655,VALID,108,VALID,0.951172,
2012-09-10, 03:41:04,VALID,1010.47,VALID,0,VALID,104,VALID,0,VALID,23.6532,VALID,124,VALID,0.785547,
2012-09-10, 03:42:04,VALID,1010.44,VALID,0,VALID,104,VALID,0,VALID,23.655,VALID,115,VALID,0.73125,
2012-09-10, 03:43:04,VALID,1010.48,VALID,0,VALID,104,VALID,0,VALID,23.655,VALID,116,VALID,0.816016,
2012-09-10, 03:44:04,VALID,1010.49,VALID,0,VALID,104,VALID,0,VALID,23.6745,VALID,116,VALID,0.941016,
2012-09-10, 03:45:04,VALID,1010.5,VALID,0,VALID,104,VALID,0.112112,VALID,23.6532,VALID,123,VALID,0.814062,
2012-09-10, 03:46:04,VALID,1010.48,VALID,0,VALID,104,VALID,0,VALID,23.6745,VALID,126,VALID,0.891797,
2012-09-10, 03:47:04,VALID,1010.5,VALID,0,VALID,104,VALID,0,VALID,23.6532,VALID,137,VALID,0.652734,
2012-09-10, 03:48:04,VALID,1010.51,VALID,0,VALID,104,VALID,0,VALID,23.6745,VALID,134,VALID,0,
2012-09-10, 03:49:04,VALID,1010.49,VALID,0,VALID,104,VALID,0,VALID,23.6745,VALID,106,VALID,0.658203,
2012-09-10, 03:50:04,VALID,1010.5,VALID,0,VALID,104,VALID,0,VALID,23.6727,VALID,131,VALID,1.15664,
2012-09-10, 03:51:04,VALID,1010.51,VALID,0,VALID,104,VALID,0,VALID,23.694,VALID,139,VALID,0.978906,
2012-09-10, 03:52:04,VALID,1010.5,VALID,0,VALID,104,VALID,0,VALID,23.694,VALID,128,VALID,0.748828,
2012-09-10, 03:53:04,VALID,1010.52,VALID,0,VALID,104,VALID,0,VALID,23.7135,VALID,126,VALID,0.442969,
2012-09-10, 03:54:04,VALID,1010.51,VALID,0,VALID,104,VALID,0.112112,VALID,23.7135,VALID,146,VALID,0.886328,
2012-09-10, 03:55:04,VALID,1010.53,VALID,0,VALID,104,VALID,0,VALID,23.7135,VALID,132,VALID,0.791406,
2012-09-10, 03:56:04,VALID,1010.52,VALID,0,VALID,104,VALID,0,VALID,23.7135,VALID,110,VALID,0.765234,
2012-09-10, 03:57:04,VALID,1010.49,VALID,0,VALID,104,VALID,0,VALID,23.733,VALID,122,VALID,0.827734,
2012-09-10, 03:58:04,VALID,1010.49,VALID,0,VALID,104,VALID,0,VALID,23.733,VALID,121,VALID,0.919141,
2012-09-10, 03:59:04,VALID,1010.48,VALID,0,VALID,104,VALID,0,VALID,23.733,VALID,143,VALID,1.29375,